Regional Weather Roundup
Issued by NWS

Home | Current Version | Previous Version | Graphics & Text | Print | Product List | Glossary On
Versions: 1 2 3 4 5 6 7 8 9 10 11 12 13 14 15 16 17 18 19 20 21 22 23 24 25 26 27 28 29 30 31 32 33 34 35 36 37 38 39 40 41 42 43 44 45 46 47 48 49 50
000
ASUS43 KTOP 192159
RWRKS

WEATHER ROUNDUP FOR KANSAS
NATIONAL WEATHER SERVICE GOODLAND KS
500 PM CDT SAT AUG 19 2017

NOTE:  "FAIR" INDICATES FEW OR NO CLOUDS BELOW 12,000 FEET WITH NO
SIGNIFICANT WEATHER AND/OR OBSTRUCTIONS TO VISIBILITY.

KSZ001>006-013>018-027>032-041>047-192300-
NORTHWEST KANSAS

CITY           SKY/WX    TMP DP  RH WIND       PRES   REMARKS
GOODLAND       SUNNY     93  57  29 SW17G24   29.91F
HAYS           SUNNY     97  63  32 SE16      29.86F HX  98
HILL CITY      SUNNY    101  54  20 S10G22    29.85F HX  99
RUSSELL        SUNNY     97  61  30 SE14      29.86F HX  97
$$

KSZ061>065-074>080-084>089-192300-
SOUTHWEST KANSAS

CITY           SKY/WX    TMP DP  RH WIND       PRES   REMARKS
DODGE CITY     SUNNY     98  56  24 S14       29.92F HX  96
ELKHART          N/A     89  66  46 S10         N/A
GARDEN CITY    SUNNY     94  62  34 S16       29.93F
GREAT BEND     SUNNY     97  64  33 SE14      29.88F HX  99
LIBERAL        SUNNY     93  65  39 SW12      29.95F HX  95
$$

KSZ066>073-081>083-090>101-192300-
SOUTHEAST KANSAS

CITY           SKY/WX    TMP DP  RH WIND       PRES   REMARKS
CHANUTE        CLOUDY    95  74  50 S8        29.89F HX 105
COFFEYVILLE    SUNNY     93  77  59 S9        29.90F HX 107
HUTCHINSON     SUNNY     97  65  34 SE7       29.88F HX  99
MEDICINE LODGE   N/A     97  65  34 S12       29.87F HX  99
NEWTON           N/A     94  72  48 E9        29.91S HX 102
PARSONS        SUNNY     92  75  57 S5        29.91F HX 103
WICHITA INTL   CLOUDY    93  67  42 S16       29.88S HX  96
WICHITA JABRA  CLOUDY    90  74  59 S7        29.90F HX  99
WINFIELD       SUNNY     94  75  54 SE9       29.90F HX 105
$$

KSZ007>012-019>026-033>040-048>060-102>105-192300-
NORTHEAST KANSAS

CITY           SKY/WX    TMP DP  RH WIND       PRES   REMARKS
CONCORDIA      SUNNY     92  67  43 SE9       29.88F HX  95
EMPORIA        CLOUDY    88  67  49 SE12      29.92S
LAWRENCE       SUNNY     92  68  45 SE9       29.90F HX  96
MANHATTAN      SUNNY     92  73  53 S9        29.87F HX 100
OLATHE IND     SUNNY     90  71  53 SE8       29.93F HX  96
OLATHE EXE     SUNNY     88  69  53 S8        29.93F
SALINA         SUNNY    101  56  22 S10G17    29.87S HX 100
TOPEKA BILLARD SUNNY     92  71  50 E9        29.90F HX  98
TOPEKA FORBES  SUNNY     94  70  45 SE14      29.91F HX 100
$$




USA.gov is the U.S. government's official web portal to all federal, state and local government web resources and services.